COSMOS 2251 DEB, 33939

Orbit data source: Space-Track

COSMOS 2251 DEB, 33939 is space debris in LEO originally from a launch on Wed, 16 Jun 1993 UTC launched from the Plesetsk Missile And Space Complex (PKMTR). The debris from Iridium 33, an American commercial communications satellite, has been tracked extensively since its accidental collision with the defunct Russian satellite Cosmos 2251 in 2009. This event, occurring at high speed in low Earth orbit (LEO), generated thousands of pieces of space debris, significantly increasing the risk of further collisions. The Iridium 33 debris cloud has impacted space traffic management and orbital debris mitigation strategies, making it a subject of ongoing study in space situational awareness.

Loading next visibility...
Identifier
33939, 1993-036EU
Orbit
LEO
Country
Flag of CISCIS
Related business
Manufacturer
Unknown
Mission
Spacecraft
Bus & Motor
Unknown
Mass
Unknown
Launch date (UTC)
1993-06-16 (33 years ago)
Launch vehicle
Unknown
Launch site
Plesetsk Missile And Space Complex (PKMTR)
Object type
Payload
Rocket body
Debris
Shape & HBR
Unknown shape, 0.1 m
Radar Cross Section
Small (<0.1 m²)

Expand to show TLE details & history
Last TLE update: 21 hours ago

TLE from 21 hours ago
0 COSMOS 2251 DEB
1 33939U 93036EU  26061.65591339  .00062863  00000-0  39255-2 0  9995
2 33939  74.0015 276.8360 0001810 234.2087 125.8936 15.09156823899543
Epoch: 2026-03-02T15:44Z
TLE epoch observation values (Epoch: 2026-03-02T15:44:30.916Z)
Latitude
-0.00009°
Longitude
-119.73904°
Altitude
542.206 km
Speed
7.591 km/s
True Right ascension
18h 27m 20s
True Declination
0° 00' 00"
Sunlit
Object was in daylight at epoch
Visualization orbit readout
Latitude
Unknown
Longitude
Unknown
Altitude
Unknown
Speed
Unknown
Apparent Right ascension
Unknown
Apparent Declination
Unknown
Sunlit
N/A
Visualization observer readout
Local Sidereal Time
16:24:33
Azimuth
Unknown
Elevation
Unknown
Doppler factor
Unknown
Orbital elements
Apogee altitude
537.573 km
Perigee altitude
535.07 km
Semi-major axis
6,914.459 km
Eccentricity
0.00018
Inclination
74.0015°
RAAN
276.836°
Arg. of periapsis
234.2087°
True anomaly
125.9104°
Mean anomaly
125.8936°
Eccentric anomaly
125.902°
Mean motion
3.7749 °/min
Orbital period
95.37 mins
BSTAR
0.0039255
Loading maneuver chart data...
Computing Atmospheric mass density...

Documentation

Showing up to 5 results
|